| time (UTC) | temp F | wind direction | speed MPH | gust MPH | rain 1hr in | rain 24hr in | rain mn in | humidity % | barometer mb |
| 20260507114043 | 66 | 276 | 8.0 | 15.0 | 0.00 | 0.00 | 0.00 | 42 | 1009.9 |
| 20260507113538 | 67 | 274 | 9.0 | 19.0 | 0.00 | 0.00 | 0.00 | 42 | 1009.9 |
| 20260507113040 | 67 | 237 | 13.0 | 19.0 | 0.00 | 0.00 | 0.00 | 41 | 1010.0 |
| 20260507112533 | 67 | 243 | 5.0 | 15.0 | 0.00 | 0.00 | 0.00 | 41 | 1010.0 |
| 20260507112029 | 69 | 218 | 5.0 | 11.0 | 0.00 | 0.00 | 0.00 | 38 | 1010.0 |
| 20260507111525 | 68 | 194 | 3.0 | 15.0 | 0.00 | 0.00 | 0.00 | 40 | 1010.1 |
| 20260507110522 | 67 | 210 | 0.0 | 10.0 | 0.00 | 0.00 | 0.00 | 43 | 1010.1 |
| 20260507110046 | 67 | 312 | 7.0 | 11.0 | 0.00 | 0.00 | 0.00 | 41 | 1010.1 |
| 20260507105542 | 67 | 187 | 3.0 | 11.0 | 0.00 | 0.00 | 0.00 | 44 | 1010.0 |
| 20260507105039 | 66 | 268 | 2.0 | 6.0 | 0.00 | 0.00 | 0.00 | 46 | 1010.0 |
| 20260507104540 | 66 | 205 | 5.0 | 7.0 | 0.00 | 0.00 | 0.00 | 46 | 1010.1 |
| 20260507104055 | 65 | 311 | 3.0 | 7.0 | 0.00 | 0.00 | 0.00 | 49 | 1010.1 |
| 20260507102534 | 64 | 276 | 1.0 | 7.0 | 0.00 | 0.00 | 0.00 | 51 | 1010.3 |
| 20260507101539 | 64 | 245 | 7.0 | 13.0 | 0.00 | 0.00 | 0.00 | 50 | 1010.4 |
| 20260507101100 | 64 | 243 | 4.0 | 12.0 | 0.00 | 0.00 | 0.00 | 52 | 1010.4 |
| 20260507100524 | 64 | 276 | 7.0 | 12.0 | 0.00 | 0.00 | 0.00 | 52 | 1010.5 |
| 20260507100044 | 65 | 230 | 7.0 | 11.0 | 0.00 | 0.00 | 0.00 | 51 | 1010.6 |
| 20260507095535 | 64 | 197 | 7.0 | 11.0 | 0.00 | 0.00 | 0.00 | 52 | 1010.6 |
| 20260507095118 | 63 | 290 | 1.0 | 9.0 | 0.00 | 0.00 | 0.00 | 55 | 1008.9 |
| 20260507094534 | 63 | 274 | 5.0 | 11.0 | 0.00 | 0.00 | 0.00 | 55 | 1010.5 |
| 20260507094120 | 63 | 315 | 2.0 | 11.0 | 0.00 | 0.00 | 0.00 | 56 | 1008.8 |
| 20260507093520 | 63 | 274 | 5.0 | 7.0 | 0.00 | 0.00 | 0.00 | 55 | 1010.3 |
| 20260507093034 | 63 | 271 | 1.0 | 6.0 | 0.00 | 0.00 | 0.00 | 58 | 1010.4 |
| 20260507092521 | 62 | 283 | 4.0 | 7.0 | 0.00 | 0.00 | 0.00 | 58 | 1010.4 |
| 20260507092042 | 61 | 278 | 5.0 | 9.0 | 0.00 | 0.00 | 0.00 | 57 | 1010.5 |
| 20260507091534 | 61 | 325 | 4.0 | 9.0 | 0.00 | 0.00 | 0.00 | 59 | 1010.5 |
| 20260507091038 | 61 | 298 | 3.0 | 8.0 | 0.00 | 0.00 | 0.00 | 61 | 1010.5 |
| 20260507090542 | 60 | 277 | 3.0 | 8.0 | 0.00 | 0.00 | 0.00 | 61 | 1010.6 |
| 20260507090105 | 60 | 279 | 4.0 | 8.0 | 0.00 | 0.00 | 0.00 | 62 | 1010.6 |
| 20260507085038 | 59 | 311 | 3.0 | 7.0 | 0.00 | 0.00 | 0.00 | 65 | 1010.6 |
| 20260507084611 | 58 | 238 | 4.0 | 6.0 | 0.00 | 0.00 | 0.00 | 68 | 1008.9 |
| 20260507084020 | 57 | 274 | 4.0 | 6.0 | 0.00 | 0.00 | 0.00 | 68 | 1010.6 |
| 20260507083621 | 57 | 242 | 4.0 | 6.0 | 0.00 | 0.00 | 0.00 | 69 | 1009.1 |
| 20260507083028 | 57 | 270 | 2.0 | 5.0 | 0.00 | 0.00 | 0.00 | 70 | 1010.8 |
| 20260507082530 | 56 | 301 | 0.0 | 3.0 | 0.00 | 0.00 | 0.00 | 70 | 1010.8 |
| 20260507081558 | 55 | 283 | 1.0 | 7.0 | 0.00 | 0.00 | 0.00 | 71 | 1010.7 |
| 20260507081035 | 55 | 248 | 3.0 | 9.0 | 0.00 | 0.00 | 0.00 | 73 | 1010.7 |
| 20260507080543 | 55 | 293 | 5.0 | 9.0 | 0.00 | 0.00 | 0.00 | 68 | 1010.7 |
| 20260507080048 | 54 | 110 | 0.0 | 0.0 | 0.00 | 0.00 | 0.00 | 76 | 1010.8 |
| 20260507075541 | 54 | 209 | 0.0 | 2.0 | 0.00 | 0.00 | 0.00 | 77 | 1010.7 |
| 20260507075021 | 55 | 138 | 0.0 | 3.0 | 0.00 | 0.00 | 0.00 | 77 | 1010.7 |
| 20260507074527 | 54 | 155 | 0.0 | 4.0 | 0.00 | 0.00 | 0.00 | 77 | 1010.7 |
| 20260507074024 | 55 | 107 | 3.0 | 4.0 | 0.00 | 0.00 | 0.00 | 75 | 1010.7 |
| 20260507073601 | 55 | 166 | 0.0 | 3.0 | 0.00 | 0.00 | 0.00 | 74 | 1010.5 |
| 20260507073030 | 55 | 135 | 0.0 | 4.0 | 0.00 | 0.00 | 0.00 | 74 | 1010.3 |
| 20260507071047 | 54 | 64 | 1.0 | 3.0 | 0.00 | 0.00 | 0.00 | 77 | 1010.1 |
| 20260507070604 | 54 | 263 | 1.0 | 3.0 | 0.00 | 0.00 | 0.00 | 78 | 1010.1 |
| 20260507070106 | 53 | 335 | 0.0 | 2.0 | 0.00 | 0.00 | 0.00 | 79 | 1010.0 |
| 20260507065038 | 53 | 273 | 1.0 | 2.0 | 0.00 | 0.00 | 0.00 | 80 | 1009.9 |
| 20260507064604 | 53 | 127 | 0.0 | 2.0 | 0.00 | 0.00 | 0.00 | 81 | 1009.9 |
| 20260507064040 | 53 | 78 | 0.0 | 2.0 | 0.00 | 0.00 | 0.00 | 81 | 1009.9 |
| 20260507063523 | 52 | 49 | 0.0 | 3.0 | 0.00 | 0.00 | 0.00 | 82 | 1009.9 |
| 20260507063029 | 52 | 72 | 0.0 | 3.0 | 0.00 | 0.00 | 0.00 | 83 | 1009.9 |
| 20260507062542 | 52 | 77 | 0.0 | 4.0 | 0.00 | 0.00 | 0.00 | 83 | 1009.9 |
| 20260507062037 | 52 | 63 | 3.0 | 6.0 | 0.00 | 0.00 | 0.00 | 83 | 1009.8 |
| 20260507061604 | 52 | 36 | 5.0 | 6.0 | 0.00 | 0.00 | 0.00 | 83 | 1008.2 |
| 20260507061036 | 52 | 120 | 3.0 | 6.0 | 0.00 | 0.00 | 0.00 | 84 | 1009.7 |
| 20260507060629 | 51 | 108 | 2.0 | 4.0 | 0.00 | 0.00 | 0.00 | 84 | 1008.1 |
| 20260507055528 | 51 | 103 | 2.0 | 5.0 | 0.00 | 0.00 | 0.00 | 84 | 1009.5 |
| 20260507055115 | 51 | 92 | 1.0 | 5.0 | 0.00 | 0.00 | 0.00 | 83 | 1007.9 |
| 20260507054551 | 51 | 103 | 2.0 | 5.0 | 0.00 | 0.00 | 0.00 | 83 | 1009.5 |
| 20260507054038 | 51 | 109 | 2.0 | 6.0 | 0.00 | 0.00 | 0.00 | 82 | 1009.5 |
| 20260507053611 | 51 | 108 | 3.0 | 6.0 | 0.00 | 0.00 | 0.00 | 82 | 1007.8 |
| 20260507053028 | 51 | 114 | 3.0 | 6.0 | 0.00 | 0.00 | 0.00 | 81 | 1009.5 |
| 20260507052555 | 51 | 122 | 3.0 | 6.0 | 0.00 | 0.00 | 0.00 | 81 | 1009.3 |
| 20260507052022 | 51 | 122 | 2.0 | 6.0 | 0.00 | 0.00 | 0.00 | 80 | 1009.2 |
| 20260507051126 | 51 | 83 | 3.0 | 6.0 | 0.00 | 0.00 | 0.00 | 79 | 1007.6 |
| 20260507050603 | 52 | 103 | 2.0 | 6.0 | 0.00 | 0.00 | 0.00 | 79 | 1007.6 |
| 20260507050041 | 52 | 79 | 3.0 | 6.0 | 0.00 | 0.00 | 0.00 | 78 | 1009.1 |
| 20260507045518 | 52 | 32 | 4.0 | 5.0 | 0.00 | 0.00 | 0.00 | 77 | 1009.0 |
| 20260507045037 | 52 | 77 | 3.0 | 5.0 | 0.00 | 0.00 | 0.00 | 77 | 1009.0 |
| 20260507044535 | 52 | 72 | 4.0 | 7.0 | 0.00 | 0.00 | 0.00 | 76 | 1009.0 |
| 20260507044029 | 52 | 111 | 2.0 | 7.0 | 0.00 | 0.00 | 0.00 | 75 | 1009.0 |
| 20260507043519 | 52 | 65 | 0.0 | 5.0 | 0.00 | 0.00 | 0.00 | 74 | 1008.9 |
| 20260507043035 | 52 | 89 | 4.0 | 5.0 | 0.00 | 0.00 | 0.00 | 74 | 1008.9 |
| 20260507042628 | 52 | 105 | 1.0 | 5.0 | 0.00 | 0.00 | 0.00 | 73 | 1007.3 |
| 20260507042106 | 52 | 76 | 3.0 | 5.0 | 0.00 | 0.00 | 0.00 | 71 | 1008.9 |
| 20260507041526 | 53 | 41 | 3.0 | 5.0 | 0.00 | 0.00 | 0.00 | 70 | 1008.8 |
| 20260507041041 | 53 | 72 | 2.0 | 6.0 | 0.00 | 0.00 | 0.00 | 70 | 1008.8 |
| 20260507040524 | 53 | 72 | 4.0 | 6.0 | 0.00 | 0.00 | 0.00 | 70 | 1008.8 |
| 20260507040056 | 53 | 82 | 2.0 | 5.0 | 0.00 | 0.00 | 0.00 | 69 | 1008.8 |
| 20260507035019 | 53 | 88 | 1.0 | 5.0 | 0.00 | 0.00 | 0.00 | 68 | 1008.8 |
| 20260507034537 | 54 | 69 | 2.0 | 6.0 | 0.00 | 0.00 | 0.00 | 67 | 1008.9 |
| 20260507034058 | 54 | 69 | 2.0 | 6.0 | 0.00 | 0.00 | 0.00 | 66 | 1008.9 |
| 20260507033105 | 54 | 41 | 3.0 | 5.0 | 0.00 | 0.00 | 0.00 | 63 | 1007.3 |
| 20260507032527 | 54 | 61 | 2.0 | 4.0 | 0.00 | 0.00 | 0.00 | 62 | 1008.9 |
| 20260507032033 | 55 | 66 | 1.0 | 3.0 | 0.00 | 0.00 | 0.00 | 61 | 1009.0 |
| 20260507031624 | 55 | 50 | 0.0 | 3.0 | 0.00 | 0.00 | 0.00 | 60 | 1007.4 |
| 20260507031037 | 55 | 58 | 1.0 | 4.0 | 0.00 | 0.00 | 0.00 | 60 | 1008.9 |
| 20260507030537 | 55 | 36 | 0.0 | 4.0 | 0.00 | 0.00 | 0.00 | 59 | 1008.9 |
| 20260507030049 | 55 | 67 | 3.0 | 4.0 | 0.00 | 0.00 | 0.00 | 59 | 1009.0 |
| 20260507025531 | 55 | 50 | 0.0 | 4.0 | 0.00 | 0.00 | 0.00 | 59 | 1009.1 |
| 20260507025102 | 55 | 94 | 0.0 | 4.0 | 0.00 | 0.00 | 0.00 | 58 | 1009.0 |
| 20260507024555 | 55 | 75 | 2.0 | 4.0 | 0.00 | 0.00 | 0.00 | 57 | 1008.9 |
| 20260507024019 | 56 | 68 | 2.0 | 4.0 | 0.00 | 0.00 | 0.00 | 56 | 1009.0 |
| 20260507023524 | 56 | 122 | 0.0 | 3.0 | 0.00 | 0.00 | 0.00 | 55 | 1009.0 |
| 20260507023029 | 55 | 73 | 2.0 | 3.0 | 0.00 | 0.00 | 0.00 | 55 | 1009.0 |
| 20260507022550 | 55 | 87 | 1.0 | 4.0 | 0.00 | 0.00 | 0.00 | 56 | 1009.0 |
| 20260507022041 | 56 | 70 | 2.0 | 4.0 | 0.00 | 0.00 | 0.00 | 56 | 1009.0 |
| 20260507021517 | 56 | 68 | 2.0 | 2.0 | 0.00 | 0.00 | 0.00 | 55 | 1009.0 |
| 20260507021038 | 56 | 80 | 0.0 | 0.0 | 0.00 | 0.00 | 0.00 | 54 | 1008.9 |
| 20260507020539 | 56 | 46 | 0.0 | 0.0 | 0.00 | 0.00 | 0.00 | 55 | 1009.0 |
| 20260507020043 | 56 | 284 | 0.0 | 0.0 | 0.00 | 0.00 | 0.00 | 54 | 1009.1 |
| 20260507015538 | 56 | 284 | 0.0 | 4.0 | 0.00 | 0.00 | 0.00 | 54 | 1009.0 |
| 20260507015022 | 56 | 219 | 0.0 | 4.0 | 0.00 | 0.00 | 0.00 | 55 | 1009.1 |
| 20260507014522 | 56 | 194 | 2.0 | 5.0 | 0.00 | 0.00 | 0.00 | 55 | 1009.2 |
| 20260507014032 | 56 | 205 | 0.0 | 5.0 | 0.00 | 0.00 | 0.00 | 54 | 1009.2 |
| 20260507013543 | 56 | 193 | 1.0 | 3.0 | 0.00 | 0.00 | 0.00 | 53 | 1009.1 |
| 20260507013018 | 56 | 172 | 0.0 | 2.0 | 0.00 | 0.00 | 0.00 | 53 | 1009.1 |
| 20260507012540 | 57 | 159 | 0.0 | 1.0 | 0.00 | 0.00 | 0.00 | 52 | 1009.0 |
| 20260507012042 | 57 | 139 | 0.0 | 2.0 | 0.00 | 0.00 | 0.00 | 51 | 1009.1 |
| 20260507011526 | 57 | 184 | 0.0 | 2.0 | 0.00 | 0.00 | 0.00 | 51 | 1009.0 |
| 20260507011022 | 57 | 217 | 1.0 | 2.0 | 0.00 | 0.00 | 0.00 | 50 | 1009.2 |
| 20260507010523 | 57 | 207 | 0.0 | 1.0 | 0.00 | 0.00 | 0.00 | 50 | 1009.1 |
| 20260507010104 | 57 | 183 | 1.0 | 2.0 | 0.00 | 0.00 | 0.00 | 50 | 1009.1 |
| 20260507005528 | 56 | 219 | 2.0 | 2.0 | 0.00 | 0.00 | 0.00 | 51 | 1009.1 |
| 20260507005023 | 56 | 214 | 1.0 | 2.0 | 0.00 | 0.00 | 0.00 | 52 | 1009.2 |
| 20260507004521 | 56 | 170 | 0.0 | 2.0 | 0.00 | 0.00 | 0.00 | 52 | 1009.3 |
| 20260507004038 | 56 | 156 | 0.0 | 2.0 | 0.00 | 0.00 | 0.00 | 52 | 1009.4 |
| 20260507003541 | 56 | 212 | 1.0 | 2.0 | 0.00 | 0.00 | 0.00 | 52 | 1009.4 |
| 20260507003026 | 56 | 160 | 0.0 | 0.0 | 0.00 | 0.00 | 0.00 | 52 | 1009.4 |
| 20260507002522 | 56 | 160 | 0.0 | 0.0 | 0.00 | 0.00 | 0.00 | 52 | 1009.4 |
| 20260507002020 | 56 | 93 | 0.0 | 2.0 | 0.00 | 0.00 | 0.00 | 51 | 1009.5 |
| 20260507001546 | 56 | 68 | 2.0 | 2.0 | 0.00 | 0.00 | 0.00 | 52 | 1009.5 |
| 20260507001037 | 56 | 110 | 0.0 | 0.0 | 0.00 | 0.00 | 0.00 | 53 | 1009.5 |
| 20260507000616 | 56 | 107 | 0.0 | 0.0 | 0.00 | 0.00 | 0.00 | 53 | 1007.9 |
| 20260507000106 | 56 | 108 | 0.0 | 2.0 | 0.00 | 0.00 | 0.00 | 53 | 1009.5 |
| 20260506235625 | 56 | 113 | 0.0 | 3.0 | 0.00 | 0.00 | 0.00 | 53 | 1007.9 |
| 20260506235039 | 56 | 108 | 0.0 | 3.0 | 0.00 | 0.00 | 0.00 | 53 | 1009.5 |
| 20260506234542 | 56 | 136 | 2.0 | 3.0 | 0.00 | 0.00 | 0.00 | 53 | 1009.5 |
| 20260506234036 | 56 | 124 | 0.0 | 2.0 | 0.00 | 0.00 | 0.00 | 54 | 1009.6 |
| 20260506233604 | 56 | 152 | 0.0 | 1.0 | 0.00 | 0.00 | 0.00 | 54 | 1007.9 |
| 20260506233043 | 56 | 119 | 0.0 | 0.0 | 0.00 | 0.00 | 0.00 | 53 | 1009.5 |
| 20260506232517 | 56 | 101 | 0.0 | 3.0 | 0.00 | 0.00 | 0.00 | 53 | 1009.4 |
| 20260506232045 | 56 | 120 | 0.0 | 12.0 | 0.00 | 0.00 | 0.00 | 53 | 1009.4 |
| 20260506231523 | 57 | 107 | 5.0 | 12.0 | 0.00 | 0.00 | 0.00 | 51 | 1009.5 |
| 20260506231031 | 57 | 205 | 0.0 | 0.0 | 0.00 | 0.00 | 0.00 | 50 | 1009.4 |
| 20260506230536 | 57 | 214 | 0.0 | 0.0 | 0.00 | 0.00 | 0.00 | 50 | 1009.5 |
| 20260506230049 | 58 | 107 | 0.0 | 0.0 | 0.00 | 0.00 | 0.00 | 50 | 1009.5 |
| 20260506225544 | 58 | 106 | 0.0 | 0.0 | 0.00 | 0.00 | 0.00 | 50 | 1009.5 |
| 20260506225022 | 59 | 97 | 0.0 | 2.0 | 0.00 | 0.00 | 0.00 | 49 | 1009.4 |
| 20260506224542 | 59 | 72 | 0.0 | 2.0 | 0.00 | 0.00 | 0.00 | 47 | 1009.4 |
| 20260506224110 | 60 | 77 | 0.0 | 0.0 | 0.00 | 0.00 | 0.00 | 43 | 1007.9 |
| 20260506223529 | 61 | 46 | 0.0 | 0.0 | 0.00 | 0.00 | 0.00 | 42 | 1009.4 |
| 20260506223045 | 61 | 318 | 0.0 | 0.0 | 0.00 | 0.00 | 0.00 | 41 | 1009.4 |
| 20260506222530 | 61 | 318 | 0.0 | 0.0 | 0.00 | 0.00 | 0.00 | 41 | 1009.4 |
| 20260506222026 | 61 | 285 | 0.0 | 0.0 | 0.00 | 0.00 | 0.00 | 41 | 1009.4 |
| 20260506221545 | 61 | 276 | 0.0 | 0.0 | 0.00 | 0.00 | 0.00 | 41 | 1009.4 |
| 20260506221052 | 61 | 316 | 0.0 | 0.0 | 0.00 | 0.00 | 0.00 | 41 | 1009.4 |
| 20260506220528 | 61 | 317 | 0.0 | 0.0 | 0.00 | 0.00 | 0.00 | 41 | 1009.4 |
| 20260506220116 | 61 | 338 | 0.0 | 0.0 | 0.00 | 0.00 | 0.00 | 40 | 1009.5 |
| 20260506215538 | 61 | 75 | 0.0 | 2.0 | 0.00 | 0.00 | 0.00 | 40 | 1009.5 |
| 20260506215033 | 62 | 312 | 0.0 | 2.0 | 0.00 | 0.00 | 0.00 | 40 | 1009.6 |
| 20260506214534 | 62 | 322 | 0.0 | 3.0 | 0.00 | 0.00 | 0.00 | 40 | 1009.6 |
| 20260506214035 | 62 | 312 | 0.0 | 3.0 | 0.00 | 0.00 | 0.00 | 40 | 1009.5 |
| 20260506213605 | 62 | 276 | 0.0 | 2.0 | 0.00 | 0.00 | 0.00 | 40 | 1008.0 |
| 20260506213021 | 62 | 281 | 0.0 | 2.0 | 0.00 | 0.00 | 0.00 | 40 | 1009.6 |
| 20260506212529 | 62 | 294 | 0.0 | 2.0 | 0.00 | 0.00 | 0.00 | 39 | 1009.6 |
| 20260506212035 | 62 | 289 | 1.0 | 2.0 | 0.00 | 0.00 | 0.00 | 38 | 1009.6 |
| 20260506211604 | 62 | 288 | 0.0 | 1.0 | 0.00 | 0.00 | 0.00 | 38 | 1008.0 |
| 20260506211022 | 63 | 317 | 0.0 | 1.0 | 0.00 | 0.00 | 0.00 | 38 | 1009.5 |
| 20260506210521 | 63 | 286 | 0.0 | 1.0 | 0.00 | 0.00 | 0.00 | 38 | 1009.5 |
| 20260506210100 | 63 | 271 | 0.0 | 1.0 | 0.00 | 0.00 | 0.00 | 37 | 1009.5 |
| 20260506205520 | 63 | 288 | 0.0 | 1.0 | 0.00 | 0.00 | 0.00 | 37 | 1009.5 |
| 20260506205037 | 63 | 286 | 0.0 | 2.0 | 0.00 | 0.00 | 0.00 | 37 | 1009.4 |
| 20260506204559 | 63 | 304 | 1.0 | 4.0 | 0.00 | 0.00 | 0.00 | 36 | 1009.4 |
| 20260506204054 | 64 | 293 | 0.0 | 4.0 | 0.00 | 0.00 | 0.00 | 36 | 1009.3 |
| 20260506203525 | 64 | 323 | 1.0 | 4.0 | 0.00 | 0.00 | 0.00 | 35 | 1009.3 |
| 20260506203034 | 64 | 300 | 0.0 | 3.0 | 0.00 | 0.00 | 0.00 | 34 | 1009.3 |
| 20260506202519 | 65 | 288 | 0.0 | 4.0 | 0.00 | 0.00 | 0.00 | 34 | 1009.3 |
| 20260506201030 | 65 | 8 | 0.0 | 3.0 | 0.00 | 0.00 | 0.00 | 33 | 1009.2 |
| 20260506200535 | 65 | 321 | 0.0 | 3.0 | 0.00 | 0.00 | 0.00 | 33 | 1009.1 |
| 20260506200052 | 65 | 280 | 1.0 | 2.0 | 0.00 | 0.00 | 0.00 | 33 | 1009.1 |
| 20260506195641 | 65 | 319 | 1.0 | 3.0 | 0.00 | 0.00 | 0.00 | 33 | 1007.5 |
| 20260506195054 | 65 | 318 | 0.0 | 3.0 | 0.00 | 0.00 | 0.00 | 33 | 1009.0 |
| 20260506194535 | 66 | 305 | 0.0 | 4.0 | 0.00 | 0.00 | 0.00 | 33 | 1009.0 |
| 20260506194032 | 66 | 319 | 2.0 | 3.0 | 0.00 | 0.00 | 0.00 | 33 | 1009.0 |
| 20260506193536 | 66 | 302 | 2.0 | 4.0 | 0.00 | 0.00 | 0.00 | 33 | 1009.0 |
| 20260506193029 | 66 | 335 | 2.0 | 4.0 | 0.00 | 0.00 | 0.00 | 33 | 1008.9 |
| 20260506192603 | 66 | 309 | 2.0 | 4.0 | 0.00 | 0.00 | 0.00 | 33 | 1007.4 |
| 20260506192019 | 66 | 309 | 2.0 | 4.0 | 0.00 | 0.00 | 0.00 | 33 | 1008.9 |
| 20260506191522 | 67 | 295 | 0.0 | 4.0 | 0.00 | 0.00 | 0.00 | 33 | 1008.9 |
| 20260506191045 | 67 | 310 | 0.0 | 3.0 | 0.00 | 0.00 | 0.00 | 33 | 1008.8 |
| 20260506190541 | 67 | 283 | 1.0 | 3.0 | 0.00 | 0.00 | 0.00 | 32 | 1008.9 |
| 20260506190056 | 67 | 317 | 0.0 | 4.0 | 0.00 | 0.00 | 0.00 | 32 | 1008.8 |
| 20260506185536 | 67 | 303 | 1.0 | 6.0 | 0.00 | 0.00 | 0.00 | 32 | 1008.9 |
| 20260506185045 | 68 | 273 | 3.0 | 6.0 | 0.00 | 0.00 | 0.00 | 31 | 1008.9 |
| 20260506184527 | 69 | 290 | 2.0 | 6.0 | 0.00 | 0.00 | 0.00 | 30 | 1008.9 |
| 20260506184102 | 70 | 352 | 3.0 | 6.0 | 0.00 | 0.00 | 0.00 | 29 | 1008.8 |
| 20260506183541 | 70 | 273 | 2.0 | 5.0 | 0.00 | 0.00 | 0.00 | 28 | 1008.8 |
| 20260506183021 | 70 | 273 | 0.0 | 4.0 | 0.00 | 0.00 | 0.00 | 28 | 1008.9 |
| 20260506182552 | 70 | 260 | 0.0 | 7.0 | 0.00 | 0.00 | 0.00 | 28 | 1008.8 |
| 20260506182018 | 70 | 108 | 0.0 | 7.0 | 0.00 | 0.00 | 0.00 | 28 | 1008.8 |
| 20260506181618 | 70 | 303 | 0.0 | 5.0 | 0.00 | 0.00 | 0.00 | 28 | 1007.2 |
| 20260506181032 | 70 | 270 | 1.0 | 6.0 | 0.00 | 0.00 | 0.00 | 28 | 1008.8 |
| 20260506180524 | 70 | 293 | 4.0 | 6.0 | 0.00 | 0.00 | 0.00 | 28 | 1008.8 |
| 20260506180052 | 70 | 312 | 0.0 | 6.0 | 0.00 | 0.00 | 0.00 | 28 | 1008.8 |
| 20260506175528 | 70 | 287 | 3.0 | 7.0 | 0.00 | 0.00 | 0.00 | 28 | 1008.8 |
| 20260506175017 | 71 | 338 | 3.0 | 7.0 | 0.00 | 0.00 | 0.00 | 28 | 1008.9 |
| 20260506174534 | 71 | 110 | 1.0 | 4.0 | 0.00 | 0.00 | 0.00 | 27 | 1009.0 |
| 20260506174052 | 71 | 271 | 2.0 | 4.0 | 0.00 | 0.00 | 0.00 | 27 | 1009.0 |
| 20260506173537 | 71 | 181 | 0.0 | 4.0 | 0.00 | 0.00 | 0.00 | 27 | 1009.0 |
| 20260506173036 | 71 | 284 | 0.0 | 7.0 | 0.00 | 0.00 | 0.00 | 27 | 1009.0 |
| 20260506172522 | 72 | 254 | 2.0 | 7.0 | 0.00 | 0.00 | 0.00 | 27 | 1009.1 |
| 20260506172032 | 72 | 222 | 4.0 | 6.0 | 0.00 | 0.00 | 0.00 | 26 | 1009.1 |
| 20260506171602 | 71 | 245 | 0.0 | 6.0 | 0.00 | 0.00 | 0.00 | 27 | 1009.0 |
| 20260506171109 | 71 | 276 | 1.0 | 6.0 | 0.00 | 0.00 | 0.00 | 26 | 1007.4 |
| 20260506170530 | 71 | 165 | 3.0 | 6.0 | 0.00 | 0.00 | 0.00 | 27 | 1009.1 |
| 20260506165528 | 73 | 238 | 3.0 | 4.0 | 0.00 | 0.00 | 0.00 | 26 | 1009.1 |
| 20260506165017 | 72 | 270 | 0.0 | 3.0 | 0.00 | 0.00 | 0.00 | 27 | 1009.1 |
| 20260506164623 | 72 | 125 | 1.0 | 3.0 | 0.00 | 0.00 | 0.00 | 25 | 1007.5 |
| 20260506164025 | 73 | 17 | 0.0 | 1.0 | 0.00 | 0.00 | 0.00 | 26 | 1009.2 |
| 20260506163147 | 71 | 322 | 2.0 | 6.0 | 0.00 | 0.00 | 0.00 | 27 | 1007.6 |
| 20260506162526 | 71 | 165 | 2.0 | 5.0 | 0.00 | 0.00 | 0.00 | 27 | 1009.2 |
| 20260506162116 | 72 | 297 | 3.0 | 7.0 | 0.00 | 0.00 | 0.00 | 26 | 1007.7 |
| 20260506161610 | 73 | 146 | 1.0 | 7.0 | 0.00 | 0.00 | 0.00 | 26 | 1007.7 |
| 20260506161039 | 73 | 269 | 1.0 | 5.0 | 0.00 | 0.00 | 0.00 | 26 | 1009.3 |
| 20260506160522 | 73 | 304 | 3.0 | 5.0 | 0.00 | 0.00 | 0.00 | 26 | 1009.3 |
| 20260506160057 | 73 | 290 | 0.0 | 8.0 | 0.00 | 0.00 | 0.00 | 26 | 1009.3 |
| 20260506155541 | 73 | 323 | 2.0 | 8.0 | 0.00 | 0.00 | 0.00 | 26 | 1009.3 |
| 20260506155040 | 73 | 126 | 2.0 | 7.0 | 0.00 | 0.00 | 0.00 | 26 | 1009.4 |
| 20260506154522 | 73 | 345 | 3.0 | 7.0 | 0.00 | 0.00 | 0.00 | 26 | 1009.5 |
| 20260506154017 | 73 | 27 | 2.0 | 5.0 | 0.00 | 0.00 | 0.00 | 26 | 1009.5 |
| 20260506153540 | 73 | 119 | 0.0 | 4.0 | 0.00 | 0.00 | 0.00 | 26 | 1009.6 |
| 20260506153022 | 73 | 345 | 1.0 | 5.0 | 0.00 | 0.00 | 0.00 | 27 | 1009.6 |
| 20260506152539 | 73 | 93 | 3.0 | 5.0 | 0.00 | 0.00 | 0.00 | 26 | 1009.6 |
| 20260506152028 | 73 | 93 | 1.0 | 4.0 | 0.00 | 0.00 | 0.00 | 26 | 1009.7 |
| 20260506151532 | 73 | 244 | 0.0 | 6.0 | 0.00 | 0.00 | 0.00 | 27 | 1009.7 |
| 20260506151051 | 73 | 317 | 2.0 | 6.0 | 0.00 | 0.00 | 0.00 | 26 | 1009.7 |
| 20260506150555 | 72 | 75 | 0.0 | 4.0 | 0.00 | 0.00 | 0.00 | 27 | 1009.8 |
| 20260506145528 | 72 | 265 | 1.0 | 7.0 | 0.00 | 0.00 | 0.00 | 28 | 1010.0 |
| 20260506144536 | 72 | 53 | 0.0 | 7.0 | 0.00 | 0.00 | 0.00 | 28 | 1010.1 |
| 20260506144029 | 71 | 13 | 0.0 | 8.0 | 0.00 | 0.00 | 0.00 | 29 | 1010.1 |
| 20260506143517 | 70 | 70 | 2.0 | 9.0 | 0.00 | 0.00 | 0.00 | 29 | 1010.2 |
| 20260506143041 | 70 | 285 | 4.0 | 9.0 | 0.00 | 0.00 | 0.00 | 30 | 1010.2 |
| 20260506142628 | 70 | 70 | 3.0 | 9.0 | 0.00 | 0.00 | 0.00 | 30 | 1008.8 |
| 20260506142023 | 70 | 65 | 2.0 | 9.0 | 0.00 | 0.00 | 0.00 | 31 | 1010.4 |
| 20260506141618 | 71 | 106 | 4.0 | 7.0 | 0.00 | 0.00 | 0.00 | 29 | 1008.9 |
| 20260506141016 | 71 | 311 | 1.0 | 7.0 | 0.00 | 0.00 | 0.00 | 29 | 1010.7 |
| 20260506140528 | 71 | 92 | 3.0 | 7.0 | 0.00 | 0.00 | 0.00 | 28 | 1010.7 |
| 20260506135516 | 70 | 245 | 2.0 | 9.0 | 0.00 | 0.00 | 0.00 | 30 | 1010.8 |
| 20260506134550 | 69 | 89 | 2.0 | 6.0 | 0.00 | 0.00 | 0.00 | 30 | 1010.8 |
| 20260506134033 | 68 | 134 | 1.0 | 3.0 | 0.00 | 0.00 | 0.00 | 31 | 1010.9 |
| 20260506133521 | 67 | 283 | 1.0 | 3.0 | 0.00 | 0.00 | 0.00 | 31 | 1011.0 |
| 20260506133028 | 67 | 105 | 0.0 | 4.0 | 0.00 | 0.00 | 0.00 | 32 | 1011.0 |
| 20260506132523 | 66 | 277 | 2.0 | 6.0 | 0.00 | 0.00 | 0.00 | 33 | 1011.0 |
| 20260506132036 | 66 | 241 | 4.0 | 7.0 | 0.00 | 0.00 | 0.00 | 33 | 1011.1 |
| 20260506131519 | 67 | 226 | 4.0 | 6.0 | 0.00 | 0.00 | 0.00 | 32 | 1011.1 |
| 20260506131049 | 68 | 208 | 3.0 | 5.0 | 0.00 | 0.00 | 0.00 | 32 | 1011.1 |
| 20260506130523 | 69 | 353 | 1.0 | 3.0 | 0.00 | 0.00 | 0.00 | 31 | 1011.2 |
| 20260506130042 | 69 | 330 | 0.0 | 6.0 | 0.00 | 0.00 | 0.00 | 32 | 1011.2 |
| 20260506125543 | 68 | 177 | 1.0 | 6.0 | 0.00 | 0.00 | 0.00 | 33 | 1011.2 |
| 20260506125033 | 69 | 139 | 3.0 | 6.0 | 0.00 | 0.00 | 0.00 | 31 | 1011.3 |
| 20260506124603 | 70 | 82 | 2.0 | 4.0 | 0.00 | 0.00 | 0.00 | 31 | 1011.3 |
| 20260506124041 | 70 | 113 | 3.0 | 4.0 | 0.00 | 0.00 | 0.00 | 31 | 1011.4 |
| 20260506123539 | 70 | 305 | 0.0 | 4.0 | 0.00 | 0.00 | 0.00 | 31 | 1011.4 |
| 20260506123024 | 69 | 247 | 1.0 | 5.0 | 0.00 | 0.00 | 0.00 | 31 | 1011.4 |
| 20260506122539 | 69 | 134 | 2.0 | 8.0 | 0.00 | 0.00 | 0.00 | 32 | 1011.4 |
| 20260506122019 | 69 | 244 | 4.0 | 8.0 | 0.00 | 0.00 | 0.00 | 31 | 1011.5 |
| 20260506121549 | 69 | 180 | 2.0 | 7.0 | 0.00 | 0.00 | 0.00 | 32 | 1011.7 |
| 20260506121019 | 67 | 220 | 3.0 | 9.0 | 0.00 | 0.00 | 0.00 | 33 | 1011.8 |
| 20260506120518 | 67 | 135 | 3.0 | 9.0 | 0.00 | 0.00 | 0.00 | 33 | 1011.7 |
| 20260506120136 | 67 | 187 | 2.0 | 7.0 | 0.00 | 0.00 | 0.00 | 32 | 1010.2 |
| 20260506115539 | 67 | 309 | 3.0 | 7.0 | 0.00 | 0.00 | 0.00 | 33 | 1011.9 |
| 20260506115029 | 68 | 216 | 1.0 | 6.0 | 0.00 | 0.00 | 0.00 | 33 | 1011.9 |
| 20260506114601 | 69 | 118 | 4.0 | 6.0 | 0.00 | 0.00 | 0.00 | 32 | 1012.0 |